Regional Weather Roundup
Issued by NWS Northern Indiana

Home | Current Version | Previous Version | Graphics & Text | Print | Product List | Glossary On
Versions: 1 2 3 4 5 6 7 8 9 10 11 12 13 14 15 16 17 18 19 20 21 22 23 24 25 26 27 28 29 30 31 32 33 34 35 36 37 38 39 40 41 42 43 44 45 46 47 48 49 50
000
ASUS43 KIWX 032100
RWRIWX

KIWX WEATHER ROUNDUP
NATIONAL WEATHER SERVICE NORTHERN INDIANA
500 PM EDT TUE MAY 03 2016

NOTE: "FAIR" INDICATES FEW OR NO CLOUDS BELOW 12,000 FEET WITH NO
SIGNIFICANT WEATHER AND/OR OBSTRUCTIONS TO VISIBILITY.

* THESE STATIONS ARE NOT UNDER NWS QUALITY CONTROL. THEY ALSO MAY NOT
  REPORT WEATHER SUCH AS PRECIPITATION OR FOG.

INZ001>027-032200-
NORTHERN INDIANA

CITY           SKY/WX    TMP DP  RH WIND       PRES   REMARKS
GARY*          PTSUNNY   66  45  45 W12       29.84F
SOUTH BEND     SUNNY     64  35  34 NW7G18    29.84F
ELKHART*       MOSUNNY   64  41  42 W8        29.84F
GOSHEN         PTSUNNY   64  41  42 W10       29.84F
ANGOLA*        PTSUNNY   63  37  39 W5        29.83F
FORT WAYNE     PTSUNNY   62  45  53 W12       29.87F

$$
INZ028>050-032200-
CENTRAL INDIANA

CITY           SKY/WX    TMP DP  RH WIND       PRES   REMARKS
LAFAYETTE      MOSUNNY   65  39  38 VRB7      29.87F
KOKOMO*        PTSUNNY   63  45  51 CALM      29.87F
MUNCIE*        MOSUNNY   59  46  62 NW8       29.88F
INDIANAPOLIS   PTSUNNY   60  43  53 NW6       29.89F

$$
MIZ043>046-050>051-056>058-064>065-071>073-077>080-032200-
SOUTHWEST LOWER MICHIGAN

CITY           SKY/WX    TMP DP  RH WIND       PRES   REMARKS
BATTLE CREEK   PTSUNNY   65  35  33 W16       29.82F
BENTON HARBOR  MOSUNNY   63  35  35 SW13      29.83F
COLDWATER*     PTSUNNY   64  37  36 W7        29.82F
HILLSDALE*     PTSUNNY   61  28  28 W7        29.82F
HOLLAND        SUNNY     63  36  36 SW15      29.82F
GRAND RAPIDS   MOSUNNY   66  37  34 W15G21    29.80F
KALAMAZOO      MOSUNNY   64  36  35 NW7       29.82F
STURGIS*       MOSUNNY   62  37  39 NW3       29.82F
THREE RIVERS*  FAIR      63  35  35 NW8       29.83F

$$
OHZ001>008-015>018-024>025-032200-
NORTHWEST OHIO

CITY           SKY/WX    TMP DP  RH WIND       PRES   REMARKS
DEFIANCE       PTSUNNY   60  37  42 CALM      29.84F
FINDLAY        CLOUDY    61  37  41 W12G17    29.83F
TOLEDO EXPRESS CLOUDY    61  37  41 SW8       29.83F
TOLEDO METCALF PTSUNNY   59  46  62 SE7       29.84F
LIMA           CLOUDY    59  44  57 W7        29.85F

$$
AND FOR LAKE MICHIGAN COASTAL AND OPEN LAKE BUOY OBSERVATIONS

STATION/POSITION TEMP    WIND        PRES    VSBY  WAVE
                 AIR SEA DIR/SP/G                  HT/PER
                 (F)     (DEG/KT/KT) (MB)    (MI)  (FT/S)
CALUMET HARBOR    59      20/  6/  9 1010.4F
MICHIGAN CITY     59     230/  4/  4   N/A
BURNS HARBOR      63      40/  3/  3 1011.9F
SAINT JOSEPH      53     180/  9/ 10 1011.9F
SOUTH LAKE BUOY   45 42  170/ 12/ 14 1010.0          1
4 MI NW BRIDGMAN  52 50                N/A           0

$$
&&




USA.gov is the U.S. government's official web portal to all federal, state and local government web resources and services.